TimeCST,TemperatureF,Dew PointF,Humidity,Sea Level PressureIn,VisibilityMPH,Wind Direction,Wind SpeedMPH,Gust SpeedMPH,PrecipitationIn,Events,Conditions,WindDirDegrees,DateUTC
12:53 AM,7.0,3.9,87,30.36,10.0,Calm,Calm,-,N/A,,Clear,0,2013-03-02 06:53:00
1:53 AM,6.1,1.9,83,30.35,10.0,South,4.6,-,N/A,,Clear,190,2013-03-02 07:53:00
2:53 AM,6.1,3.0,87,30.33,10.0,SSE,4.6,-,N/A,,Clear,160,2013-03-02 08:53:00
3:53 AM,7.0,3.9,87,30.31,10.0,SE,6.9,-,N/A,,Clear,140,2013-03-02 09:53:00
4:53 AM,6.1,3.0,87,30.31,10.0,SSE,6.9,-,N/A,,Partly Cloudy,150,2013-03-02 10:53:00
5:53 AM,3.9,1.0,88,30.29,5.0,SE,11.5,-,N/A,,Partly Cloudy,140,2013-03-02 11:53:00
6:14 AM,3.2,1.4,92,30.23,6.0,SE,11.5,-,N/A,,Scattered Clouds,140,2013-03-02 12:14:00
6:53 AM,3.9,1.0,88,30.30,4.0,SSE,10.4,-,N/A,,Mostly Cloudy,150,2013-03-02 12:53:00
7:53 AM,5.0,1.9,87,30.27,5.0,SSE,12.7,-,N/A,Rain,Light Freezing Rain,150,2013-03-02 13:53:00
8:26 AM,6.8,3.2,85,30.21,9.0,SSE,10.4,-,N/A,,Overcast,160,2013-03-02 14:26:00
8:53 AM,9.0,6.1,88,30.27,6.0,SSE,8.1,-,N/A,,Overcast,160,2013-03-02 14:53:00
9:53 AM,12.9,9.0,84,30.26,8.0,South,13.8,-,N/A,,Overcast,180,2013-03-02 15:53:00
10:53 AM,17.1,12.9,84,30.23,10.0,South,18.4,-,N/A,,Overcast,180,2013-03-02 16:53:00
11:53 AM,19.0,14.0,81,30.22,10.0,South,19.6,-,N/A,,Overcast,180,2013-03-02 17:53:00
12:53 PM,21.0,15.1,78,30.20,10.0,South,17.3,-,N/A,,Overcast,170,2013-03-02 18:53:00
1:53 PM,23.0,17.1,78,30.17,10.0,South,19.6,-,N/A,,Mostly Cloudy,170,2013-03-02 19:53:00
2:53 PM,24.1,17.1,75,30.16,10.0,SSE,18.4,-,N/A,,Overcast,160,2013-03-02 20:53:00
3:53 PM,24.1,16.0,71,30.17,10.0,SSE,18.4,-,N/A,,Overcast,160,2013-03-02 21:53:00
4:53 PM,23.0,16.0,74,30.15,10.0,South,17.3,23.0,N/A,,Overcast,170,2013-03-02 22:53:00
5:53 PM,23.0,15.1,72,30.15,10.0,South,12.7,-,N/A,,Overcast,170,2013-03-02 23:53:00
6:20 PM,23.0,15.8,74,30.09,10.0,SSE,9.2,-,N/A,,Overcast,160,2013-03-03 00:20:00
6:53 PM,23.0,12.2,63,30.09,10.0,South,13.8,-,N/A,,Overcast,170,2013-03-03 00:53:00
7:53 PM,21.9,12.0,66,30.14,10.0,South,13.8,-,N/A,,Overcast,180,2013-03-03 01:53:00
8:53 PM,21.9,12.9,68,30.13,10.0,South,11.5,-,N/A,,Overcast,180,2013-03-03 02:53:00
9:53 PM,21.9,15.1,75,30.12,10.0,South,10.4,-,N/A,,Overcast,180,2013-03-03 03:53:00
10:53 PM,21.9,15.1,75,30.10,10.0,South,12.7,-,N/A,,Overcast,190,2013-03-03 04:53:00
11:43 PM,21.2,15.8,80,30.04,10.0,South,10.4,-,0.00,,Overcast,180,2013-03-03 05:43:00
11:53 PM,21.9,15.1,75,30.09,10.0,South,10.4,-,0.00,,Overcast,180,2013-03-03 05:53:00